This is the latest recevied weather packets stored in our database for station/object KJ4UBX-11. If no packets are shown the sender has not sent any weather packets the latest 10 day(s).
| Time | Temp. | Humidity | Pressure | Rain* | Wind** | Luminosity | Snow |
|---|---|---|---|---|---|---|---|
| 1777749301 | 18.89° C | 56% | 1010 hPa | - | - | - | - |
| 1777748718 | 18.33° C | 58% | 1010.2 hPa | - | - | - | - |
| 1777748135 | 18.33° C | 56% | 1010.2 hPa | - | - | - | - |
| 1777747553 | 18.33° C | 56% | 1010.3 hPa | - | - | - | - |
| 1777746967 | 17.78° C | 63% | 1010.4 hPa | - | - | - | - |
| 1777746387 | 17.22° C | 60% | 1010.6 hPa | - | - | - | - |
| 1777745802 | 17.22° C | 63% | 1010.7 hPa | - | - | - | - |
| 1777745217 | 16.67° C | 68% | 1010.8 hPa | - | - | - | - |
| 1777744632 | 15.56° C | 69% | 1010.9 hPa | - | - | - | - |
| 1777744048 | 15° C | 72% | 1010.8 hPa | - | - | - | - |
| 1777743464 | 13.89° C | 76% | 1010.8 hPa | - | - | - | - |
| 1777742881 | 13.33° C | 77% | 1010.8 hPa | - | - | - | - |
| 1777742297 | 13.89° C | 77% | 1010.6 hPa | - | - | - | - |
| 1777741714 | 13.89° C | 80% | 1010.7 hPa | - | - | - | - |
| 1777741131 | 13.89° C | 80% | 1010.6 hPa | - | - | - | - |
| 1777740548 | 13.33° C | 81% | 1010.7 hPa | - | - | - | - |
| 1777739964 | 12.78° C | 79% | 1010.8 hPa | - | - | - | - |
| 1777739381 | 13.33° C | 80% | 1010.9 hPa | - | - | - | - |
| 1777738797 | 12.78° C | 80% | 1011 hPa | - | - | - | - |
| 1777738214 | 12.78° C | 78% | 1011 hPa | - | - | - | - |
| 1777737632 | 12.78° C | 76% | 1011.1 hPa | - | - | - | - |
| 1777737049 | 13.33° C | 74% | 1011.2 hPa | - | - | - | - |
| 1777736467 | 13.89° C | 71% | 1011.2 hPa | - | - | - | - |
| 1777735882 | 13.33° C | 70% | 1011.3 hPa | - | - | - | - |
| 1777735301 | 14.44° C | 70% | 1011.2 hPa | - | - | - | - |
* Rain since midnight (hover to see other rain measurements)
** Current wind speed in m/s (hover to see current wind gust speed)